STARLINK-31450, 59006

Orbit data source: Space-Track

STARLINK-31450, 59006 is a payload satellite owned by SpaceX/Seattle (US) in LEO that was launched on Fri, 23 Feb 2024 UTC via an FALCON 9 launch vehicle from the Air Force Western Test Range (AFWTR). Payload-class satellites include a variety of spacecraft equipped with specific instruments for various scientific and technological missions. These include communications satellites like Starlink; space stations such as the ISS; scientific satellites like the Hubble; Earth observation satellites from companies like Planet Labs, Umbra, and HawkEye 360; GPS; miniature CubeSats for education and research; and military/defense satellites.

Loading next visibility...
Identifier
59006, 2024-036J
Orbit
LEO
Country
Flag of USUS
Related business
Manufacturer
SpaceX/Seattle
Mission
Operational Commercial Communications
Bus & Motor
STARLINK V2M, Unknown motor
Mass
730 kg wet, ~700 kg dry
Launch date (UTC)
2024-02-23 (2 years ago)
Launch vehicle
FALCON 9
Launch site
Air Force Western Test Range (AFWTR)
Object type
Payload
Rocket body
Debris
Shape & HBR
Box + 2 Pan, 17.7 m
Radar Cross Section
33.884 m², Large (>1 m²)

Expand to show TLE details & history
Last TLE update: 3 days ago

TLE from 3 days ago
0 STARLINK-31450
1 59006U 24036J   26170.70137417 -.00000855  00000-0 -16729-4 0  9990
2 59006  53.1616 324.1572 0001328  67.4032 292.7109 15.30198690130943
Epoch: 2026-06-19T16:49Z
TLE epoch observation values (Epoch: 2026-06-19T16:49:58.728Z)
Latitude
-0.00003°
Longitude
163.73591°
Altitude
475.768 km
Speed
7.629 km/s
True Right ascension
21h 36m 37s
True Declination
0° 00' 00"
Sunlit
Object was in full shadow at epoch
Visualization orbit readout
Latitude
Unknown
Longitude
Unknown
Altitude
Unknown
Speed
Unknown
Apparent Right ascension
Unknown
Apparent Declination
Unknown
Sunlit
N/A
Visualization observer readout
Local Sidereal Time
21:25:20
Azimuth
Unknown
Elevation
Unknown
Doppler factor
Unknown
Orbital elements
Apogee altitude
476.385 km
Perigee altitude
474.565 km
Semi-major axis
6,853.612 km
Eccentricity
0.00013
Inclination
53.1616°
RAAN
324.1572°
Arg. of periapsis
67.4032°
True anomaly
292.69686°
Mean anomaly
292.7109°
Eccentric anomaly
292.70388°
Mean motion
3.82529 °/min
Orbital period
94.11 mins
BSTAR
-0.000016729
Loading maneuver chart data...
Computing Atmospheric mass density...
Loading historical data...
Loading historical data...
Loading historical data...
Loading historical data...
Loading historical data...
Loading historical data...
Loading historical data...

Documentation

Showing up to 5 results
|